User: anonymous   Login
Location: Beaurecueil
(43.5122°N, 5.5450°E)
Time: 05:25:21
(UTC+00:00)
Language:

In-Cosmos 22 - Orbit

View from above orbital plane
View from above orbital plane
View from above satellite
View from above satellite

Ground track
Ground track

The orbit data is extracted from the following two-line orbital elements,

1 12645U 81075A   20333.53121351 +.00000047 +00000-0 +16787-4 0  9995
2 12645 081.2200 054.0226 0062669 261.6524 097.7543 14.18379701032749
Epoch (UTC): 28 November 2020 12:44:56
Eccentricity: 0.0062669
inclination: 81.2200°
perigee height: 785 km
apogee height: 876 km
right ascension of ascending node: 54.0226°
argument of perigee: 261.6524°
revolutions per day: 14.18379701
mean anomaly at epoch: 97.7543°
orbit number at epoch: 3274

The dashed part of the orbit path shows where the satellite is in the earth's shadow,  

DLR